Notices

What's New in latest Release from April 7th, 2021:

- Updated Glossary, including Speed of Maximum Gust, and Total Hourly Precipitation

- Updated national and regional climate services offices contacts and prices information

- Addition of station inventory lists for 1981-2010, 1971-2000, and 1961-1990 Normals.

If you haven't already, please take our survey and provide feedback about our website: https://eccc.sondage-survey.ca/f/LanguageSelection.aspx?s=442ca660-fcf1-47c0-95a9-59707d6fd709

Hourly Data Report for December 16, 2003

TORONTO CITY
ONTARIO

43°40'00.000" N
79°24'00.000" W
112.50 m
6158355
71508
XTO

Download Data

Hourly Data (December 2003)
Hourly Data Report for December 16, 2003
TIME
LST
Temp Definition
°C
Dew Point Definition
°C
Rel Hum Definition
%
Precip. Amount Definition
mm

Wind Dir Definition
10's deg

Wind Spd Definition
km/h
Visibility Definition
km
Stn Press Definition
kPa
Hmdx Definition


Wind Chill Definition


Weather Definition


00:00 1.8 -1.3 80   LegendMM LegendMM LegendMM 100.47     LegendNANA
01:00 2.0 -1.2 79   LegendMM LegendMM LegendMM 100.38     LegendNANA
02:00 2.1 -0.8 81   LegendMM LegendMM LegendMM 100.37     LegendNANA
03:00 1.9 -1.1 80   LegendMM LegendMM LegendMM 100.36     LegendNANA
04:00 1.6 -1.2 82   LegendMM LegendMM LegendMM 100.31     LegendNANA
05:00 1.3 -1.2 83   LegendMM LegendMM LegendMM 100.21     LegendNANA
06:00 1.7 -1.0 82   LegendMM LegendMM LegendMM 100.12     LegendNANA
07:00 1.3 -1.2 83   LegendMM LegendMM LegendMM 100.02     LegendNANA
08:00 1.9 -1.2 80   LegendMM LegendMM LegendMM 100.01     LegendNANA
09:00 2.7 -0.6 79   LegendMM LegendMM LegendMM 99.96     LegendNANA
10:00 3.8 0.4 78   LegendMM LegendMM LegendMM 99.89     LegendNANA
11:00
12:00 4.3 -0.5 71   LegendMM LegendMM LegendMM 99.55     LegendNANA
13:00 4.4 0.0 73   LegendMM LegendMM LegendMM 99.47     LegendNANA
14:00 5.0 0.7 74   LegendMM LegendMM LegendMM 99.43     LegendNANA
15:00 6.0 2.5 78   LegendMM LegendMM LegendMM 99.32     LegendNANA
16:00 6.0 2.6 79   LegendMM LegendMM LegendMM 99.24     LegendNANA
17:00
18:00
19:00 6.1 4.6 90   LegendMM LegendMM LegendMM 99.21     LegendNANA
20:00 6.4 5.2 92   LegendMM LegendMM LegendMM 99.18     LegendNANA
21:00 6.2 5.7 97   LegendMM LegendMM LegendMM 99.13     LegendNANA
22:00 6.0 5.7 98   LegendMM LegendMM LegendMM 99.08     LegendNANA
23:00 5.9 5.2 95   LegendMM LegendMM LegendMM 99.05     LegendNANA

Notes on Data Quality.

Legend

  • E = Estimated
  • M = Missing
  • NA = Not Available*
  • [empty] = Indicates an unobserved value
Date modified: